Location: Nairn
(57.5833°N, 3.8667°W)
Time: 05:14:21
(UTC+00:00)

Explorer 7 - Pass Details

Date: 30 November 2020
Orbit: 484 x 678 km, 50.3° (Epoch: 17 January)

Event Time Altitude Azimuth Distance (km) Brightness Sun altitude
Exits shadow 04:47:00 22° 142° (SE) 1,226 8.9 -28.5°
Drops below altitude 10° 04:48:56 10° 121° (ESE) 1,808 10.1 -28.2°
Sets 04:51:15 0° 111° (ESE) 2,666 11.3 -27.9°
